TIME,DELAY(SENSOR),PRES,T(CTD),SAL,OXYGEN,RAWTEMP,T(OPTODE),TCPHASE,FLUOR,BETA(BETA700),BETA(BETA412),BETA(BETA440),CDOM,C(CSC),ED(ED411.90),ED(ED443.80),ED(ED489.40),ED(ED554.70),LU(LU412.20),LU(LU443.80),LU(LU489.40),LU(LU555.00),COMP,TILTX,TILTX(TILTY),CHECK
1339861606,5806,496.9400024414062500,15.7309999465942380,36.1313018798828100,208.3394012451172000,244.4817047119140600,15.7291603088378900,33.9381484985351560,50,106,101,81,71,15441,2147475803,2147772708,2147567442,2147801718,2147313124,2147473353,2147719515,2148245851,181,7,13,51288
1339861716,5805,486.6000061035156000,15.9011001586914060,36.1628990173339840,211.4400024414062500,238.8708038330078000,15.8997497558593750,33.6836891174316400,50,106,101,79,69,15439,2147478720,2147772909,2147563958,2147803739,2147313618,2147472466,2147720704,2148242861,742,7,13,35750
1339861839,5803,475.3500061035156000,16.0736999511718750,36.1945991516113300,213.7353057861328000,233.2843933105468800,16.0695991516113280,33.4774589538574200,50,107,101,79,69,15439,2147475026,2147773321,2147560393,2147801462,2147313883,2147477814,2147717860,2148241965,1033,7,13,52524
1339861959,5802,464.6099853515625000,16.2623996734619140,36.2295989990234400,215.3874969482422000,227.1717987060547000,16.2554397583007800,33.3003807067871100,50,107,100,80,69,15440,2147479570,2147773568,2147560438,2147801490,2147316224,2147474532,2147717494,2148252022,1294,7,13,6628
1339862092,5803,453.1199951171875000,16.3852005004882800,36.2559013366699200,217.6584014892578000,222.8538970947265600,16.3867206573486330,33.1170310974121100,50,107,100,80,69,15440,2147478326,2147772416,2147561005,2147800219,2147316059,2147477458,2147716187,2148243648,1499,7,13,44206
1339862213,5803,442.7300109863281000,16.4902000427246100,36.2766990661621100,220.2478027343750000,219.4295959472656200,16.4908409118652340,32.9317398071289060,50,108,100,79,69,15441,2147478537,2147767158,2147562505,2147801280,2147313984,2147475977,2147714194,2148249106,2167,7,13,28907
1339862344,5803,431.7799987792969000,16.6427993774414060,36.3055992126464840,222.1795043945312500,214.5605926513672000,16.6388893127441400,32.7621917724609400,50,107,100,81,68,15441,2147482688,2147771218,2147561024,2147800100,2147318454,2147474752,2147717769,2148248576,2616,7,13,39398
1339862478,5804,420.6799926757812500,16.7334995269775400,36.3246002197265600,224.1717987060547000,211.5814971923828000,16.7294692993164060,32.6178092956543000,50,105,99,80,69,15439,2147481984,2147768274,2147561600,2147797330,2147314953,2147479085,2147712064,2148245394,3051,6,13,22700
1339862621,5805,409.2300109863281000,16.8875007629394530,36.3545989990234400,225.6788024902343800,206.5027008056640600,16.8839092254638670,32.4696998596191400,51,107,100,80,68,15441,2147484004,2147770166,2147559286,2147797741,2147313426,2147478838,2147716022,2148248320,1864,7,13,37882
1339862755,5804,398.4400024414062500,17.0193004608154300,36.3814010620117200,228.4306945800781200,202.0823059082031200,17.0183506011962900,32.2694702148437500,50,108,99,79,68,15438,2147483602,2147767277,2147563318,2147796809,2147315300,2147477878,2147713380,2148244827,2275,7,13,34343
1339862886,5803,387.8500061035156000,17.1371002197265620,36.4044990539550800,230.8217010498047000,198.3753051757812500,17.1310997009277340,32.0988616943359400,50,106,99,80,68,15441,2147487195,2147767771,2147562624,2147795931,2147314322,2147479296,2147715648,2148245558,2680,7,13,13010
1339863030,5802,376.0499877929687500,17.2283000946044920,36.4231986999511700,233.3887023925781200,195.2747955322265600,17.2254199981689450,31.9302501678466800,49,107,99,80,66,15437,2147483821,2147768722,2147562907,2147794422,2147311753,2147483053,2147712749,2148245065,3149,7,13,1465
1339863161,5803,364.9700012207031000,17.3218002319335940,36.4421997070312500,234.7140045166015600,192.1062927246093800,17.3218097686767580,31.8225898742675780,50,108,100,80,67,15441,2147486884,2147768109,2147559177,2147794898,2147315373,2147484059,2147712384,2148243702,3490,7,13,26360
1339863281,5806,354.6300048828125000,17.3570995330810550,36.4441986083984400,234.4779968261718800,191.0478973388672000,17.3540096282959000,31.8194694519042970,50,110,101,80,67,15429,2147483748,2147768539,2147563236,2147795684,2147316827,2147483702,2147712566,2148240832,384,7,13,50307
1339863415,5804,342.8800048828125000,17.4342994689941400,36.4575004577636700,233.8347015380859400,188.4129028320312500,17.4341793060302730,31.8150291442871100,50,112,102,82,68,15428,2147485467,2147763858,2147565824,2147795556,2147315273,2147478720,2147713097,2148243328,978,7,13,8085
1339863535,5805,332.4899902343750000,17.4825992584228500,36.4659004211425800,234.0195007324218800,186.8818969726562500,17.4807605743408200,31.7850303649902340,50,115,100,81,68,15425,2147488548,2147767808,2147569280,2147793033,2147309248,2147480566,2147716150,2148242944,1029,7,13,61068
1339863668,5806,321.2099914550781000,17.5307998657226560,36.4734001159668000,234.1374053955078000,185.3045959472656200,17.5287609100341800,31.7578201293945300,50,114,102,82,67,15424,2147485248,2147772342,2147579428,2147793892,2147311350,2147482194,2147720466,2148244626,990,7,13,23601
1339863799,5803,310.8099975585937500,17.5891990661621100,36.4833984375000000,234.2617950439453000,183.3827972412109400,17.5872402191162100,31.7257194519042970,50,113,100,82,66,15420,2147485988,2147769188,2147582162,2147791076,2147310043,2147487305,2147722450,2148243053,1162,7,13,31210
1339863941,5804,299.9299926757812500,17.6443004608154300,36.4916000366210940,234.5471038818359400,181.5964050292968800,17.6416091918945300,31.6877593994140620,50,112,100,82,66,15424,2147485120,2147769581,2147588416,2147794971,2147313645,2147485760,2147726948,2148244297,1723,7,13,4861
1339864084,5801,287.6300048828125000,17.6965999603271500,36.4992980957031250,234.5220947265625000,179.6250000000000000,17.7016105651855470,31.6621398925781250,50,113,102,81,67,15421,2147490112,2147778404,2147604214,2147791387,2147315200,2147489819,2147739419,2148245302,1822,7,12,26815
1339864193,5799,277.2699890136719000,17.7873992919921880,36.5153007507324200,235.3240051269531200,177.1631011962890600,17.7765502929687500,31.5901603698730470,50,113,102,82,66,15421,2147488256,2147780278,2147613156,2147791616,2147310528,2147492946,2147738139,2148242569,1439,7,12,34740
1339864315,5805,265.7699890136719000,17.8393993377685550,36.5171012878418000,235.2754058837890600,175.0173950195312500,17.8418598175048830,31.5635108947753900,50,114,100,82,67,15419,2147488301,2147788562,2147642761,2147793554,2147315172,2147497965,2147758710,2148246473,1469,7,12,30688
1339864424,5802,255.4199981689453000,17.9074993133544920,36.5251007080078100,234.3654022216797000,172.9974975585937500,17.9033603668212900,31.5799503326416000,50,114,102,82,66,15420,2147489005,2147795821,2147654473,2147792850,2147311186,2147499602,2147765476,2148245595,2021,7,13,26197
1339864544,5804,243.9499969482422000,17.9354991912841800,36.5243988037109400,233.1714019775390600,172.2617034912109400,17.9257602691650400,31.6280403137207030,50,113,102,81,68,15419,2147494253,2147800585,2147671762,2147791716,2147318089,2147503451,2147776164,2148247259,1962,8,12,7971
1339864655,5804,233.3800048828125000,18.0147991180419920,36.5275993347168000,232.1432037353515600,169.4808959960937500,18.0104408264160160,31.6405906677246100,50,115,101,83,68,15413,2147492964,2147836434,2147763684,2147791606,2147319469,2147524562,2147829394,2148245522,1686,7,13,45734
1339864775,5801,222.1699981689453000,18.1601009368896500,36.5429000854492200,230.8282012939453000,164.6618041992187500,18.1571998596191400,31.6398391723632800,50,116,102,82,67,15417,2147499501,2147865755,2147833764,2147793042,2147319003,2147542016,2147872283,2148253138,1883,7,13,51803
1339864895,5804,210.8800048828125000,18.4025001525878900,36.5553016662597660,229.7568054199218800,156.8088989257812500,18.3964595794677730,31.5867805480957030,50,115,102,82,67,15412,2147500864,2147895862,2147897993,2147790601,2147321426,2147566692,2147910180,2148253540,1566,8,13,23199
1339865007,5804,200.3999938964843800,18.7437000274658200,36.5788002014160160,232.3215942382812500,145.1672973632812500,18.7513504028320300,31.3054790496826170,50,116,103,81,66,15414,2147506340,2147939072,2147992173,2147791497,2147325302,2147588498,2147964096,2148254061,1981,7,12,8732
1339865061,5801,195.5200042724609400,18.9489002227783200,36.5913009643554700,235.2799987792968800,139.1132965087890600,18.9360198974609380,31.0827198028564450,50,115,102,82,66,15416,2147512777,2147966427,2148051126,2147792621,2147320786,2147605193,2147996480,2148257865,2296,7,12,25883
1339865115,5801,190.8800048828125000,19.0734004974365230,36.5982017517089840,239.4196014404297000,134.8594055175781200,19.0658206939697270,30.8312091827392580,50,115,101,81,65,15415,2147516434,2147945865,2147984155,2147791853,2147315894,2147593554,2147960786,2148253769,2589,8,13,45246
1339865169,5802,186.3300018310547000,19.2150993347167970,36.6039009094238300,244.9313964843750000,129.3155975341797000,19.2350597381591800,30.5052108764648440,50,113,101,81,64,15415,2147523181,2147986258,2148080457,2147791734,2147320420,2147625060,2148017947,2148258413,2748,7,13,20338
1339865223,5802,182.0500030517578000,19.3180007934570300,36.6077003479003900,251.9696044921875000,126.7172012329101600,19.3144092559814450,30.1579895019531250,51,115,100,84,65,15413,2147531026,2148034121,2148188662,2147791597,2147332973,2147664758,2148088393,2148258139,3458,7,13,35912
1339865297,5803,176.5899963378906200,19.3495006561279300,36.6090011596679700,256.1635131835937500,125.7009963989257800,19.3454494476318360,29.9632606506347660,52,115,102,82,65,15413,2147555190,2148151936,2148465856,2147791030,2147339456,2147750317,2148259053,2148266148,3450,8,13,20343
1339865352,5804,172.9400024414062500,19.3570995330810550,36.6064987182617200,258.4952087402344000,125.4126968383789000,19.3542499542236330,29.8600997924804700,52,117,102,82,64,15411,2147563620,2148206445,2148585179,2147792603,2147350162,2147789632,2148334985,2148272429,112,7,12,39703
1339865417,5804,168.7100067138672000,19.3658008575439450,36.6066017150878900,259.7745971679687500,125.1214981079101600,19.3631496429443360,29.8022594451904300,53,118,102,82,62,15410,2147594916,2148348562,2148901988,2147789540,2147360905,2147894784,2148532470,2148285449,350,7,13,11658
1339865471,5805,165.2799987792968800,19.3740005493164060,36.6058006286621100,260.5681152343750000,124.8599014282226600,19.3711395263671880,29.7654209136962900,55,123,102,82,63,15411,2147624768,2148475922,2149179364,2147793709,2147380132,2147985124,2148706541,2148294363,403,7,12,11500
1339865536,5801,161.2400054931640600,19.3754997253417970,36.6048011779785160,261.0961914062500000,124.8089981079101600,19.3726902008056640,29.7425498962402340,56,123,101,83,64,15401,2147653120,2148592768,2149423890,2147794029,2147399232,2148068928,2148861211,2148303917,368,7,12,48909
1339865613,5805,156.8899993896484400,19.3754997253417970,36.6046981811523440,261.4249877929687500,124.7804031372070300,19.3735694885253900,29.7284107208251950,57,120,103,82,64,15405,2147695451,2148742729,2149746084,2147794624,2147422290,2148173248,2149053302,2148316022,379,7,13,28988
1339865689,5803,153.3200073242187500,19.3782997131347660,36.6026992797851560,261.5911865234375000,124.7049026489257800,19.3758697509765620,29.7203903198242200,60,119,104,81,63,15404,2147728676,2148835803,2149922505,2147798299,2147436251,2148235419,2149161115,2148318592,256,7,12,4691
1339865765,5803,149.7299957275390600,19.3791007995605470,36.6016006469726560,261.7073059082031000,124.6815032958984400,19.3765907287597660,29.7152309417724600,62,123,104,82,64,15397,2147763273,2148922770,2150092077,2147800685,2147453366,2148298486,2149257197,2148327670,264,7,13,7746
1339865852,5807,145.5299987792968800,19.3763999938964840,36.5992012023925800,261.9388122558594000,124.7477035522461000,19.3745708465576170,29.7065391540527340,63,122,103,83,62,15398,2147807570,2149053860,2150336859,2147799524,2147473627,2148379977,2149393901,2148334665,58,7,12,16301
1339865931,5805,141.6999969482422000,19.3782997131347660,36.5979995727539060,261.8963928222656000,124.7023010253906200,19.3759498596191400,29.7075996398925780,70,123,104,83,64,15394,2147877814,2149279488,2150810121,2147803392,2147512338,2148523986,2149657956,2148350089,239,7,13,36751
1339866018,5803,137.3000030517578000,19.3803005218505860,36.5971984863281250,261.8104858398437500,124.6495971679687500,19.3775596618652340,29.7104797363281250,74,125,102,83,63,15388,2147963364,2149491081,2151219593,2147810688,2147554742,2148657563,2149900242,2148364672,298,7,13,18511
1339866094,5802,133.3600006103515600,19.3812999725341800,36.5969009399414060,261.9025878906250000,124.5944976806640600,19.3792495727539060,29.7059097290039060,80,126,104,84,64,15382,2148041920,2149693915,2151608411,2147818313,2147595483,2148772178,2150082989,2148381312,430,7,13,17592
1339866170,5805,129.3099975585937500,19.3868007659912100,36.5962982177734400,261.8959960937500000,124.4265975952148400,19.3843708038330080,29.7039909362792970,89,131,104,84,64,15370,2148026834,2149538377,2151201718,2147819218,2147580324,2148636132,2149807104,2148369764,466,7,13,5929
1339866238,5803,125.6100006103515600,19.3897991180419920,36.5951995849609400,261.9547119140625000,124.3311996459961000,19.3872890472412100,29.7005805969238280,97,129,104,83,62,15362,2148309147,2150380452,2152917275,2147840777,2147707986,2149122048,2150710656,2148429376,437,7,13,55090
1339866314,5806,121.4199981689453100,19.3908004760742200,36.5956993103027340,262.1134948730469000,124.2619018554687500,19.3894100189209000,29.6928596496582030,105,132,105,84,64,15358,2148519488,2150919140,2153914697,2147857636,2147802139,2149362139,2151148406,2148464960,455,7,12,41764
1339866390,5805,117.1999969482421900,19.4011993408203120,36.5951995849609400,262.4032897949219000,123.9462966918945300,19.3990497589111330,29.6768493652343750,115,136,104,84,63,15350,2148804562,2151604086,2155129545,2147884763,2147916379,2149646518,2151644553,2148507529,386,7,13,57119
1339866455,5805,113.5800018310546900,19.4106998443603500,36.5955009460449200,262.9124145507812500,123.6250991821289000,19.4088592529296880,29.6514701843261720,120,132,103,84,64,15331,2149085622,2152226368,2156148964,2147911469,2148013851,2149870784,2152029028,2148540909,382,7,12,52437
1339866533,5805,109.3000030517578100,19.4097995758056640,36.5905990600585940,263.8156127929687500,123.6977005004882800,19.4066390991210940,29.6148490905761720,125,137,103,83,66,15327,2149392694,2152806281,2156973668,2147940141,2148115136,2150029284,2152243565,2148571401,317,7,13,47913
1339866609,5803,105.2900009155273400,19.4167003631591800,36.5890998840332000,263.5268859863281000,123.4328994750976600,19.4147300720214840,29.6233806610107420,136,139,104,84,65,15312,2150067273,2154287195,2159364690,2148003456,2148356096,2150617280,2153187300,2148663195,509,7,13,243
1339866685,5804,101.4899978637695300,19.4498004913330080,36.5929985046386700,264.9822998046875000,122.4004974365234400,19.4462699890136720,29.5502300262451170,135,138,105,85,65,15306,2150883776,2156003730,2161944173,2148073472,2148650770,2151236754,2154151616,2148759030,584,7,13,14594
1339866750,5806,98.4400024414062500,19.4454994201660160,36.5885009765625000,265.5606079101562500,122.4345016479492200,19.4452304840087900,29.5268402099609380,157,141,104,85,65,15282,2151649042,2157506861,2164022372,2148143597,2148904210,2151699794,2154819675,2148837906,676,7,13,26583
1339866805,5802,95.9100036621093800,19.4598999023437500,36.5903015136718750,265.7374877929687500,121.7998962402343800,19.4646205902099600,29.5113792419433600,154,140,103,85,65,15274,2152704146,2159630985,2167073956,2148237293,2149251264,2152409097,2155882203,2148951222,820,7,13,40884
1339866862,5806,93.4000015258789000,19.4883995056152340,36.5924987792968750,267.6458129882812500,121.0940017700195300,19.4861907958984380,29.4244098663330080,149,143,104,84,65,15269,2153853942,2161877083,2170038628,2148333357,2149634130,2153164617,2156915785,2149067812,746,7,13,3809
1339866917,5803,91.0699996948242200,19.5286998748779300,36.5951995849609400,270.0234985351562500,119.8723983764648400,19.5235195159912100,29.3127899169921880,123,145,105,83,65,15264,2155011593,2163934784,2172498285,2148435730,2150041508,2153887369,2157847378,2149180891,815,7,13,42479
1339866972,5804,88.8099975585937500,19.5464000701904300,36.5947990417480500,272.2601928710937500,119.2602996826171900,19.5422306060791000,29.2154102325439450,124,139,105,85,65,15265,2156371977,2166272731,2175184402,2148551094,2150570002,2154859017,2159087771,2149325750,704,7,13,45360
1339867027,5804,86.5400009155273400,19.5638008117675780,36.5943984985351560,273.0820922851562500,118.6468963623046900,19.5609703063964840,29.1748409271240230,114,138,106,85,66,15262,2158063826,2169180205,2178598427,2148696457,2151198500,2156036854,2160552237,2149493961,625,7,12,62473
1339867082,5803,84.2099990844726600,19.5709991455078120,36.5934982299804700,274.3478088378906000,118.3699035644531200,19.5694408416748050,29.1211395263671880,114,140,109,85,64,15255,2159586468,2171442953,2180777645,2148823597,2151796918,2156995638,2161560612,2149621732,656,7,13,20869
1339867137,5804,81.8600006103515600,19.5851993560791000,36.5917015075683600,275.0361022949219000,117.9300003051757800,19.5828895568847660,29.0884895324707030,113,144,106,86,65,15245,2163192045,2177515273,2188094390,2149142884,2153170861,2159554733,2164799680,2149974857,674,7,13,41007
1339867194,5802,79.5599975585937500,19.6380996704101560,36.5918006896972660,275.8619079589844000,116.2629013061523400,19.6338405609130860,29.0350303649902340,105,143,109,87,62,15234,2162271753,2174686537,2182714624,2148995748,2152975798,2158739062,2163094473,2149821805,624,7,13,60975
1339867249,5805,77.4000015258789000,19.6627006530761720,36.5926017761230500,277.4042053222656000,115.3641967773437500,19.6613197326660160,28.9634990692138670,103,148,108,89,63,15229,2168751405,2185784786,2196879552,2149670857,2155499428,2163429860,2169112301,2150475053,590,7,13,52101
1339867304,5805,75.3300018310546900,19.6851997375488280,36.5943984985351560,278.1451110839844000,114.6130981445312500,19.6842803955078120,28.9250392913818360,96,146,111,88,63,15226,2171733394,2189665792,2200423954,2149957174,2156826953,2165491995,2171320621,2150728566,255,7,13,17218
1339867359,5802,73.2399978637695300,19.7411003112792970,36.5926017761230500,278.8767089843750000,112.7750015258789000,19.7404899597167970,28.8736591339111330,93,144,110,88,62,15225,2176565750,2196685851,2208074706,2150444580,2158805586,2168671350,2174848868,2151137618,3507,7,13,27134
1339867414,5801,71.2399978637695300,19.8127994537353500,36.5932006835937500,279.6564941406250000,110.6951980590820300,19.8040904998779300,28.8172302246093750,90,148,110,88,64,15210,2179987062,2200979968,2211923456,2150806089,2160403739,2171108086,2177189531,2151379730,3464,7,13,31551
1339867469,5805,69.3000030517578100,19.8558998107910160,36.5932998657226560,280.5185852050781000,108.8562011718750000,19.8603496551513670,28.7611103057861330,88,146,109,87,61,15211,2184659373,2207231021,2218326125,2151292123,2162671606,2174508205,2180630564,2151786294,242,7,13,29009
1339867543,5804,66.3799972534179700,19.9531993865966800,36.5961990356445300,281.5024108886719000,106.0251998901367200,19.9469604492187500,28.6878604888916000,83,147,109,88,63,15179,2193924781,2219343844,2230710966,2152390857,2167296905,2181221083,2187312466,2152616512,650,7,13,57376
1339867598,5803,63.6300010681152340,20.1208000183105470,36.5969009399414060,281.7254943847656000,100.3125000000000000,20.1218299865722660,28.6079196929931640,82,148,110,89,59,15175,2202759314,2230341220,2241777517,2153475657,2172027282,2188118518,2194328987,2153459309,611,7,13,49905
1339867653,5805,61.1199989318847660,20.2497005462646500,36.5996017456054700,282.4648132324219000,96.7446899414062500,20.2310905456542970,28.5351791381835940,77,150,111,89,62,15171,2171706596,2180899510,2181785078,2149695204,2158489152,2164378697,2165231798,2150164525,148,7,13,3223
1339867708,5802,58.8300018310546900,20.3187999725341800,36.6013984680175800,282.9356994628906000,94.1561813354492200,20.3103904724121100,28.4850196838378900,81,149,109,89,62,15180,2214520429,2242334720,2252168155,2155403995,2178624987,2196103899,2200847131,2154393590,3366,7,13,16181
1339867763,5803,56.6800003051757800,20.5403003692626950,36.5989990234375000,282.4630126953125000,87.7334899902343800,20.5072498321533200,28.4230709075927730,76,148,111,89,61,15172,2221283657,2249813988,2259344310,2156500269,2182721472,2201216054,2205473069,2155037312,2960,8,13,52599
1339867818,5801,54.9300003051757800,20.7005004882812500,36.6059989929199200,281.7087097167969000,82.5889205932617200,20.6650505065917970,28.3876590728759770,73,149,110,88,58,15166,2225981979,2254439954,2263169289,2157382326,2186464676,2205700662,2209254528,2155575826,3514,7,13,57129
1339867974,5807,52.1300010681152340,20.8917999267578120,36.6108016967773440,280.6333923339844000,75.7717590332031200,20.8742904663085940,28.3440093994140620,72,147,110,89,61,15165,2237173430,2267288557,2276259346,2159453558,2193654784,2214904804,2217632365,2156756918,3441,7,13,45429
1339868067,5803,50.8499984741210940,20.9365005493164060,36.6097984313964840,280.0180053710937500,74.1815719604492200,20.9231300354003900,28.3476600646972660,70,145,112,87,61,15173,2191515081,2203653028,2204157897,2152425526,2170861604,2180274980,2179728923,2152022180,2786,7,13,56110
1339868255,5803,48.5499992370605500,21.0361003875732420,36.6068000793457000,278.8934020996094000,70.4979629516601600,21.0362892150878900,28.3449192047119140,68,146,111,88,62,15160,2262208210,2296035529,2306446016,2164781622,2210292845,2235514523,2236650688,2159676342,2808,7,12,65416
1339868312,5803,46.7299995422363300,21.1096000671386720,36.6068000793457000,278.3385925292969000,68.2302627563476600,21.1059799194335940,28.3380203247070300,65,146,110,89,59,15167,2266195181,2298572196,2307754038,2166066331,2216301732,2241963264,2241210413,2160437805,3230,7,13,5187
1339868381,5800,44.5699996948242200,21.1665992736816400,36.5999984741210940,277.9147949218750000,66.0998535156250000,21.1714801788330080,28.3279209136962900,64,142,109,87,61,15176,2279333074,2312026112,2320927506,2169464832,2226885979,2253292470,2250020278,2161903890,179,7,12,42594
1339868450,5802,42.6699981689453100,21.2444000244140620,36.6024017333984400,277.2131958007812500,63.7207298278808600,21.2446403503417970,28.3254508972167970,64,146,112,88,60,15180,2285694454,2316889042,2324735762,2171171657,2233845522,2260164909,2254886381,2162761993,3240,7,13,42399
1339868518,5802,40.7799987792968750,21.2721004486084000,36.5964012145996100,276.5071105957031000,62.6379203796386700,21.2779407501220700,28.3393707275390620,62,143,110,88,59,15187,2299280694,2330074624,2337022802,2174770176,2245472722,2271927049,2263813632,2164316114,3297,7,13,57397
1339868563,5804,38.7900009155273440,21.3666000366210940,36.5854988098144500,275.9681091308594000,59.7065696716308600,21.3681297302246100,28.3238391876220700,62,142,108,88,58,15181,2317703341,2349318299,2357029568,2180853430,2260321005,2288121792,2277118939,2166824502,3240,6,12,7100
1339868608,5803,36.6800003051757800,21.4557991027832030,36.5603981018066400,275.2879028320312500,56.6737289428710940,21.4614791870117200,28.3126106262207030,60,139,109,89,60,15185,2329503579,2359313490,2365732022,2185408896,2280153005,2309738395,2296084041,2170012827,2767,7,12,12599
1339868653,5804,34.5299987792968750,21.5258007049560550,36.5634994506835940,274.9350891113281000,54.6291809082031250,21.5244293212890620,28.3010807037353500,60,142,109,87,61,15185,2344351588,2374331702,2383854208,2193319396,2289149257,2317052708,2300942720,2172536822,2535,8,13,3411
1339868698,5805,32.4599990844726560,21.5918006896972660,36.5694007873535160,274.5404052734375000,52.4809684753418000,21.5905990600585940,28.2899093627929700,58,144,108,87,58,15183,2233302774,2238907520,2234016365,2163199149,2215661732,2224458505,2211499904,2157563867,2668,8,13,27386